Simultaneous Nadir Overpasses (SNOs) Predictions

Prediction of SNOs between LANDSAT-8 and METOP-A Satellite Orbit:

Table of predicted SNOs for the next 14.0 days since TLE Epoch: 10/27/2018
Index Date (LANDSAT-8) Time (LANDSAT-8) Lat,Lon (LANDSAT-8) SZA (LANDSAT-8 ) Date (METOP-A) Time (METOP-A) Lat,Lon (METOP-A) SZA (METOP-A ) Distance(km) Time Diff (sec)
1 10/28/2018 22:58:08 -81.41, 60.52 82.39 10/28/2018 22:57:28 -81.41, 60.69 82.39 2.83 40
2 10/28/2018 23:47:34 81.42,-131.73 97.65 10/28/2018 23:48:08 81.42,-131.57 97.68 2.57 34
3 10/31/2018 18:32:23 -81.41, 126.91 81.47 10/31/2018 18:31:43 -81.41, 127.03 81.48 2.02 40
4 10/31/2018 19:21:49 81.42, -65.35 98.56 10/31/2018 19:22:23 81.42, -65.25 98.59 1.64 34
5 11/03/2018 14:06:39 -81.41,-166.72 80.60 11/03/2018 14:05:59 -81.41,-166.64 80.60 1.47 40
6 11/03/2018 14:56:05 81.41, 0.99 99.43 11/03/2018 14:56:39 81.41, 1.05 99.46 0.96 34
7 11/06/2018 09:40:55 -81.40,-100.39 79.76 11/06/2018 09:40:15 -81.41,-100.33 79.77 1.32 40
8 11/06/2018 10:30:20 81.42, 67.69 100.32 11/06/2018 10:30:54 81.42, 67.72 100.33 0.89 34
9 11/09/2018 05:15:09 -81.41, -33.71 78.91 11/09/2018 05:14:29 -81.41, -33.64 78.92 1.08 40




NCC Satellite Simultaneous Nadir Overpasses (SNOs) Prediction Service
